Home > Weather > Stendal > Past weeks

Flag for Germany Weather for the Past 2 Weeks in Stendal, Saxony-Anhalt, Germany

Now
34 °F

Clear.


Feels Like: 26 °F
Forecast: 32 / 41 °F
Wind: 9 mph from West

Location: Berlin-Tegel

Current Time: Feb 12, 2016 at 1:21:08 AM

Latest Report: Feb 12, 2016 at 12:20 AM


Visibility: 10 mi

Pressure: 29.59 "Hg

Humidity: 87%

Dew point: 30 °F

Location of StendalLocation

Historic Weather in Stendal — Graph

°F

Stendal Temperature Yesterday

Maximum temperature yesterday: 43 °F (at 3:20 PM)
Minimum temperature yesterday: 34 °F (at 10:50 PM)
Average temperature yesterday: 40 °F

High & Low Weather Summary for the Past Weeks

 TemperatureHumidityPressure
High54 °F (Jan 28, 4:20 AM)100% (Feb 1, 12:20 PM)30.24 "Hg (Feb 1, 12:20 PM)
Low30 °F (Feb 5, 5:20 AM)44% (Feb 2, 1:20 PM)28.94 "Hg (Feb 9, 9:50 PM)
Average43 °F75%29.76 "Hg
* Reported Jan 27 10:20 PM — Feb 11 10:50 PM, Stendal, Weather by CustomWeather, © 2016

Note: Actual official high and low records may vary slightly from our data, if they occured in-between our weather recording intervals... More about our weather records

Advertising

Stendal Weather History for the Previous 24 Hours

 ConditionsComfort  
Time TempWeatherWind HumidityBarometerVisibility
10:50 PM
Thu, Feb 11
34 °FClear.9 mph87%29.59 "Hg10 mi
10:20 PM36 °FClear.10 mph81%29.59 "Hg10 mi
9:50 PM36 °FClear.10 mph87%29.59 "Hg10 mi
9:20 PM36 °FClear.10 mph87%29.59 "Hg10 mi
8:50 PM36 °FClear.10 mph87%29.59 "Hg10 mi
8:20 PM37 °FClear.10 mph81%29.59 "Hg10 mi
7:50 PM37 °FClear.10 mph81%29.59 "Hg10 mi
7:20 PM37 °FClear.13 mph81%29.59 "Hg10 mi
6:50 PM39 °FClear.14 mph75%29.59 "Hg10 mi
6:20 PM39 °FClear.13 mph75%29.56 "Hg10 mi
5:50 PM41 °FPassing clouds.15 mph70%29.56 "HgN/A
5:20 PM43 °FPartly cloudy.12 mph66%29.56 "HgN/A
4:50 PM41 °FBroken clouds.9 mph76%29.56 "HgN/A
4:20 PM41 °FBroken clouds.9 mph76%29.56 "HgN/A
3:50 PM41 °FSprinkles. Broken clouds.17 mph76%29.56 "HgN/A
3:20 PM43 °FScattered showers. Partly sunny.13 mph71%29.53 "HgN/A
2:50 PM41 °FBroken clouds.13 mph81%29.53 "HgN/A
2:20 PM41 °FBroken clouds.16 mph81%29.53 "HgN/A
1:50 PM39 °FBroken clouds.16 mph87%29.53 "HgN/A
1:20 PM41 °FLight rain. Broken clouds.18 mph76%29.53 "HgN/A
12:50 PM41 °FLight rain. Broken clouds.18 mph76%29.53 "HgN/A
12:20 PM41 °FLight rain. Broken clouds.17 mph76%29.53 "HgN/A
11:50 AM39 °FLight rain. Broken clouds.18 mph87%29.53 "HgN/A
11:20 AM39 °FLight rain. Partly sunny.16 mph87%29.53 "HgN/A
10:50 AM39 °FLight rain. Broken clouds.16 mph87%29.53 "HgN/A
10:20 AM39 °FLight rain. Broken clouds.20 mph81%29.50 "HgN/A
9:50 AM39 °FLight rain. Broken clouds.21 mph87%29.50 "HgN/A
9:20 AM39 °FLight rain. Partly sunny.20 mph81%29.50 "HgN/A
8:50 AM39 °FLight rain. Partly sunny.18 mph81%29.47 "HgN/A
8:20 AM39 °FLight rain. Partly sunny.21 mph87%29.47 "HgN/A
7:50 AM41 °FLight rain. Partly sunny.17 mph81%29.47 "HgN/A
7:20 AM41 °FPassing clouds.17 mph81%29.45 "HgN/A
6:50 AM39 °FPassing clouds.20 mph87%29.45 "HgN/A
6:20 AM39 °FLight rain. Partly cloudy.17 mph93%29.42 "HgN/A
5:20 AM41 °FLight rain. Passing clouds.17 mph81%29.42 "HgN/A
4:50 AM41 °FLight rain. Passing clouds.15 mph87%29.42 "HgN/A
4:20 AM41 °FLight rain. Passing clouds.16 mph87%29.39 "HgN/A
3:50 AM41 °FPassing clouds.17 mph87%29.39 "HgN/A
3:20 AM41 °FPassing clouds.16 mph87%29.39 "HgN/A
2:50 AM41 °FPassing clouds.15 mph87%29.39 "HgN/A
2:20 AM41 °FPassing clouds.14 mph81%29.39 "HgN/A
1:50 AM39 °FPassing clouds.13 mph87%29.36 "HgN/A
1:20 AM39 °FPassing clouds.12 mph87%29.36 "HgN/A
Weather by CustomWeather, © 2016

See weather overviewHow to use our weather pages